Regional Weather Roundup
Issued by NWS Portland, ME

Home | Current Version | Previous Version | Text Only | Print | Product List | Glossary On
Versions: 1 2 3 4 5 6 7 8 9 10 11 12 13 14 15 16 17 18 19 20 21 22 23 24 25 26 27 28 29 30 31 32 33 34 35 36 37 38 39 40 41 42 43 44 45 46 47 48 49 50
000
ASUS41 KGYX 241310
RWRGYX
WEATHER ROUNDUP FOR MAINE AND NEW HAMPSHIRE
NATIONAL WEATHER SERVICE GRAY ME
900 AM EDT SUN JUL 24 2016

MEZ002-005-006-010-012-015-018-020-021-024-026-027-029-241400-
MAINE

CITY           SKY/WX    TMP DP  RH WIND       PRES   REMARKS
PORTLAND       SUNNY     76  61  59 N10       29.91R
SANFORD          N/A     74  64  71 VRB5      29.92F
BAR HARBOR     SUNNY     73  58  59 N8        29.87S
WISCASSET      SUNNY     75  62  64 VRB3      29.91S
ROCKLAND       SUNNY     74  61  63 VRB6      29.88S
FRYEBURG       NOT AVBL
LEWISTONAUBURN   N/A     72  60  66 NW13      29.92S
AUGUSTA        MOSUNNY   73  60  63 NW9       29.91S
WATERVILLE     SUNNY     71  59  65 N9        29.89R
BANGOR         SUNNY     75  59  57 NW12      29.89S
GREENVILLE       N/A     63  51  65 NW9       29.93R
MILLINOCKET    SUNNY     70  54  56 NW6       29.90S
HOULTON        SUNNY     69  59  70 N8        29.87R
PRESQUE ISLE   SUNNY     66  57  72 N5        29.89S
FRENCHVILLE    SUNNY     66  55  67 NW10      29.89R
CARIBOU        SUNNY     69  57  65 NW3       29.87S
$$

NHZ002-005-008-009-011-012-014-241400-
NEW HAMPSHIRE

CITY           SKY/WX    TMP DP  RH WIND       PRES   REMARKS
PORTSMOUTH     SUNNY     74  63  69 W6        29.91S
ROCHESTER      SUNNY     74  61  63 VRB5      29.92S
NASHUA         SUNNY     74  62  66 NW10      29.95S
MANCHESTER     MOSUNNY   74  60  61 NW10      29.93S
CONCORD        SUNNY     74  61  63 NW12      29.94F
LACONIA        SUNNY     71  60  68 W8        29.95F
PLYMOUTH       FAIR      70  60  70 W6        29.94F
BERLIN         SUNNY     65  52  62 W8        29.99S
WHITEFIELD     PTSUNNY   66  58  75 NW5       30.00S
JAFFREY        SUNNY     71  59  65 VRB3      29.99R
KEENE          MOSUNNY   64  61  90 CALM      30.00S
LEBANON        SUNNY     69  60  73 VRB3      29.98R
MT WASHINGTON  MOSUNNY   55  10  16 NW37        N/A
$$

VTZ005-007-008-241400-
VERMONT

CITY           SKY/WX    TMP DP  RH WIND       PRES   REMARKS
ST JOHNSBURY     N/A     65  56  72 MISG      29.99R
MONTPELIER     FAIR      61  55  81 NW7       30.05R
BURLINGTON     PTSUNNY   66  55  67 NW7       30.03R
$$

MAZ007-012-024-CTZ003-RIZ002-NYZ038-NYZ072-241400-
SOUTHERN NEW ENGLAND AND NY

CITY           SKY/WX    TMP DP  RH WIND       PRES   REMARKS
BOSTON         SUNNY     77  60  55 NW10      29.93S
WORCESTER      SUNNY     72  59  63 W12       29.99R
NANTUCKET      SUNNY     75  63  66 N13       29.93R
PROVIDENCE     MOSUNNY   77  60  55 NW8       29.95S
HARTFORD       MOSUNNY   79  61  53 W7        29.97F
ALBANY         MOSUNNY   71  63  75 N7        30.02R
NEW YORK CITY  MOSUNNY   80  61  52 N6        29.98S
$$

ANZ081-ANZ082-ANZ150-NHZ014-MEZ023>029-241400-
COASTAL MARINE OBSERVATIONS

STATION/POSITION TIME  TEMP    WIND        PRES    WAVE
                       AIR SEA DIR/SP/G            HT/PER
                 (UTC) (F)     (DEG/KT/KT) (MB)    (FT/S)
MOUNT DESERT ROC 1200   62     300/ 16/ 16 1011.0R
MATINICUS ROCK   1200   61     320/ 12/ 13 1011.6R
ISLE OF SHOALS   1200   66     300/  7/  8 1013.0R
JEFFREYS LEDGE   1208      67                N/A     2/ 3
CASHES LEDGE BUO 1250   69 69  320/ 14/ 17 1012.2R   3/ 8
GEORGES BANK BUO 1250   63 62              1010.4R   6/ 8
$$

.............KEY..............
   WCI - WIND CHILL
   TC  - TEMPERATURE IN CELSIUS
   VSB - VISIBILITY IN MILES
   HX  - HEAT INDEX
   FAIR- INDICATES FEW OR NO CLOUDS BELOW 12,000 FT, WITH NO
         SIGNIFICANT WEATHER AND/OR OBSTRUCTIONS TO VISIBILITY.






USA.gov is the U.S. government's official web portal to all federal, state and local government web resources and services.